Flag Weather past 2 weeks in Masaya, Nicaragua

Now
75 °F

Passing clouds.


Feels Like: 74 °F
Forecast: 74 / 87 °F
Wind: No wind

Location: Managua A. C. Sandino

Current Time: Nov 26, 2014 at 4:33:04 AM

Latest Report: Nov 26, 2014 at 4:00 AM


Visibility: N/A

Pressure: 29.83 "Hg

Humidity: 94%

Dew point: 73 °F

Location of MasayaLocation

Historic Weather in Masaya — Graph

°F

Masaya temperature yesterday

Maximum temperature yesterday: 90 °F (at 11:00 AM)
Minimum temperature yesterday: 73 °F (at 5:00 AM)
Average temperature yesterday: 81 °F

Past Weeks' High & Low Weather Summary

 TemperatureHumidityPressure
High91 °F (Nov 14, 1:00 PM)100% (Nov 25, 5:00 AM)29.95 "Hg (Nov 25, 5:00 AM)
Low72 °F (Nov 12, 3:00 AM)44% (Nov 14, 2:00 PM)29.71 "Hg (Nov 23, 3:00 PM)
Average80 °F79%29.85 "Hg
* Reported Nov 11 5:00 AM — Nov 26 3:00 AM, Masaya, Weather by CustomWeather, © 2014

Note: Actual official high and low records may vary slightly from our data, if they occured in-between our weather recording intervals... More about our weather records

Advertising

Masaya weather history for previous 24 hours

 ConditionsComfort  
Time TempWeatherWind HumidityBarometerVisibility
3:00 AM
Nov 26
75 °FPassing clouds.No wind94%29.83 "HgN/A
1:00 AM75 °FPassing clouds.No wind94%29.83 "HgN/A
12:00 AM77 °FPassing clouds.No wind89%29.86 "HgN/A
11:00 PM
Nov 25
77 °FPassing clouds.5 mph89%29.86 "HgN/A
10:00 PM77 °FPassing clouds.No wind89%29.86 "HgN/A
9:00 PM77 °FPassing clouds.5 mph94%29.89 "HgN/A
6:00 PM79 °FPassing clouds.7 mph79%29.83 "HgN/A
5:00 PM81 °FScattered clouds.9 mph84%29.80 "HgN/A
4:00 PM82 °FScattered clouds.12 mph79%29.80 "HgN/A
3:00 PM82 °FRain. Scattered clouds.12 mph79%29.77 "Hg6 mi
2:00 PM86 °FRain. Scattered clouds.9 mph75%29.77 "Hg6 mi
1:00 PM90 °FPassing clouds.9 mph59%29.77 "HgN/A
12:00 PM90 °FPassing clouds.9 mph63%29.83 "HgN/A
11:00 AM90 °FScattered clouds.12 mph63%29.86 "HgN/A
10:00 AM86 °FScattered clouds.9 mph70%29.89 "HgN/A
9:00 AM84 °FPassing clouds.5 mph70%29.89 "HgN/A
8:00 AM82 °FPassing clouds.5 mph79%29.89 "HgN/A
7:00 AM75 °FScattered clouds.No wind89%29.86 "Hg6 mi
6:00 AM73 °FScattered clouds.No wind100%29.83 "Hg6 mi
5:00 AM73 °FPassing clouds.No wind100%29.80 "HgN/A
4:00 AM75 °FPassing clouds.No wind89%29.80 "HgN/A
Weather by CustomWeather, © 2014

See weather overviewHow to use our weather pages